Tracking 17631 objects as of 3-May-2016
HD Live streaming from Space Station
objects crossing your sky now

COSMOS 2251 DEB

Track COSMOS 2251 DEB now!
10-day predictions


NORAD ID: 34447
Int'l Code: 1993-036SQ
Perigee: 637.1 km
Apogee: 670.5 km
Inclination: 74.0 °
Period: 97.7 minutes
Semi major axis: 7024 km
RCS: 0.038 m2 (small)
Launch date: June 16, 1993
Source: Commonwealth of Independent States (former USSR) (CIS)
Launch site: PLESETSK MISSILE AND SPACE COMPLEX (PKMTR)

Note: This is SATELLITE DEBRIS
Your satellite tracking list
Your tracking list is empty





NASA's NSSDC Master Catalog

Two Line Element Set (TLE):
1 34447U 93036SQ  16123.57155240  .00011245  00000-0  16843-2 0  9992
2 34447  74.0297  80.7704 0023785 355.7832 127.4087 14.74529394381208
Source of the keplerian elements: AFSPC

N2YO: 351